GW3491 Weather Reports


Display with metric or nautical units.
time (UTC)temp
F
wind
direction
speed
MPH
gust
MPH
rain 1hr
in
rain 24hr
in
rain mn
in
humidity
%
barometer
mb
20260507202601 57 324 4.0 7.0 0.00 0.00 0.00 22 997.4
20260507202058 58 270 6.0 8.0 0.00 0.00 0.00 21 997.4
20260507201553 57 275 7.0 8.0 0.00 0.00 0.00 22 997.7
20260507201050 57 278 6.0 9.0 0.00 0.00 0.00 18 997.4
20260507200545 57 262 9.0 10.0 0.00 0.00 0.00 19 997.7
20260507200042 56 280 6.0 8.0 0.00 0.00 0.00 19 997.7
20260507195539 57 249 9.0 10.0 0.00 0.00 0.00 22 997.7
20260507195037 57 293 8.0 9.0 0.00 0.00 0.00 22 997.7
20260507194533 57 293 8.0 8.0 0.00 0.00 0.00 22 997.7
20260507194029 57 273 8.0 11.0 0.00 0.00 0.00 22 997.7
20260507193526 57 277 5.0 6.0 0.00 0.00 0.00 22 997.7
20260507193023 56 280 4.0 8.0 0.00 0.00 0.00 20 997.7
20260507192519 57 290 5.0 10.0 0.00 0.00 0.00 22 998.1
20260507192016 57 268 7.0 8.0 0.00 0.00 0.00 22 997.7
20260507191511 56 285 6.0 9.0 0.00 0.00 0.00 19 997.7
20260507191009 56 269 6.0 8.0 0.00 0.00 0.00 20 997.7
20260507190506 56 283 6.0 9.0 0.00 0.00 0.00 20 998.1
20260507190006 56 290 5.0 8.0 0.00 0.00 0.00 19 998.1
20260507185502 56 274 4.0 9.0 0.00 0.00 0.00 19 998.1
20260507184959 56 286 4.0 8.0 0.00 0.00 0.00 20 998.1
20260507184457 56 283 4.0 9.0 0.00 0.00 0.00 20 998.1
20260507183955 56 290 3.0 7.0 0.00 0.00 0.00 20 998.1
20260507183450 56 291 5.0 11.0 0.00 0.00 0.00 19 998.1
20260507182948 56 279 7.0 9.0 0.00 0.00 0.00 20 998.1
20260507182444 56 264 6.0 8.0 0.00 0.00 0.00 20 998.1
20260507181940 56 265 5.0 9.0 0.00 0.00 0.00 19 998.1
20260507181436 56 250 8.0 9.0 0.00 0.00 0.00 20 998.1
20260507180933 56 297 5.0 9.0 0.00 0.00 0.00 20 998.1
20260507180430 55 287 3.0 7.0 0.00 0.00 0.00 19 998.1
20260507175926 55 266 5.0 9.0 0.00 0.00 0.00 20 998.1
20260507175423 55 268 5.0 8.0 0.00 0.00 0.00 17 998.4
20260507174921 55 293 5.0 8.0 0.00 0.00 0.00 17 998.1
20260507174418 55 278 5.0 9.0 0.00 0.00 0.00 17 998.1
20260507173915 55 260 6.0 8.0 0.00 0.00 0.00 17 998.1
20260507173412 55 284 6.0 9.0 0.00 0.00 0.00 18 998.1
20260507172908 55 284 6.0 8.0 0.00 0.00 0.00 18 998.1
20260507172405 55 272 4.0 10.0 0.00 0.00 0.00 18 998.1
20260507171901 55 277 6.0 11.0 0.00 0.00 0.00 18 998.7
20260507171358 55 268 6.0 9.0 0.00 0.00 0.00 18 998.4
20260507170855 54 328 6.0 8.0 0.00 0.00 0.00 18 998.7
20260507170351 55 279 5.0 8.0 0.00 0.00 0.00 18 998.4
20260507165848 55 286 4.0 6.0 0.00 0.00 0.00 18 998.4
20260507165343 54 277 7.0 8.0 0.00 0.00 0.00 18 998.7
20260507164840 54 277 5.0 6.0 0.00 0.00 0.00 18 998.7
20260507164337 53 286 4.0 6.0 0.00 0.00 0.00 19 998.7
20260507163834 53 258 6.0 7.0 0.00 0.00 0.00 19 998.7
20260507163331 53 295 6.0 9.0 0.00 0.00 0.00 19 999.1
20260507162828 53 286 4.0 8.0 0.00 0.00 0.00 19 999.1
20260507162323 53 293 5.0 7.0 0.00 0.00 0.00 20 999.1
20260507161821 53 288 6.0 10.0 0.00 0.00 0.00 20 999.1
20260507161317 53 296 4.0 7.0 0.00 0.00 0.00 20 999.1
20260507160814 53 324 4.0 7.0 0.00 0.00 0.00 19 999.1
20260507160309 53 273 4.0 7.0 0.00 0.00 0.00 19 999.1
20260507155806 53 293 5.0 7.0 0.00 0.00 0.00 19 999.1
20260507155306 53 282 6.0 7.0 0.00 0.00 0.00 19 999.4
20260507154759 53 284 6.0 7.0 0.00 0.00 0.00 19 999.4
20260507154256 53 279 7.0 10.0 0.00 0.00 0.00 19 999.1
20260507153752 54 271 4.0 8.0 0.00 0.00 0.00 18 999.4
20260507153249 54 270 9.0 9.0 0.00 0.00 0.00 18 999.4
20260507152746 53 287 7.0 8.0 0.00 0.00 0.00 19 999.4
20260507152242 53 264 4.0 9.0 0.00 0.00 0.00 19 999.4
20260507151738 53 292 5.0 7.0 0.00 0.00 0.00 20 999.4
20260507151234 54 283 4.0 8.0 0.00 0.00 0.00 18 999.4
20260507150731 53 261 5.0 7.0 0.00 0.00 0.00 20 999.4
20260507150228 53 284 4.0 7.0 0.00 0.00 0.00 20 999.7
20260507145724 53 278 5.0 8.0 0.00 0.00 0.00 20 999.4
20260507145221 53 291 4.0 8.0 0.00 0.00 0.00 20 999.7
20260507144718 53 289 4.0 9.0 0.00 0.00 0.00 20 999.4
20260507144216 53 282 5.0 8.0 0.00 0.00 0.00 19 999.4
20260507143712 53 267 6.0 8.0 0.00 0.00 0.00 20 999.4
20260507143209 52 287 4.0 7.0 0.00 0.00 0.00 21 999.1
20260507142705 52 263 6.0 7.0 0.00 0.00 0.00 20 999.4
20260507142202 53 295 3.0 6.0 0.00 0.00 0.00 20 999.4
20260507141658 53 285 4.0 7.0 0.00 0.00 0.00 19 999.7
20260507141155 53 280 5.0 8.0 0.00 0.00 0.00 20 999.1
20260507140651 52 268 5.0 9.0 0.00 0.00 0.00 19 999.4
20260507140149 52 280 3.0 7.0 0.00 0.00 0.00 20 999.4
20260507135646 52 283 4.0 7.0 0.00 0.00 0.00 20 999.1
20260507135143 52 295 2.0 3.0 0.00 0.00 0.00 20 999.4
20260507134639 52 267 3.0 6.0 0.00 0.00 0.00 20 999.4
20260507134136 52 260 2.0 4.0 0.00 0.00 0.00 20 999.4
20260507133632 51 271 4.0 4.0 0.00 0.00 0.00 21 999.4
20260507133129 51 263 4.0 4.0 0.00 0.00 0.00 21 999.4
20260507132626 51 288 4.0 4.0 0.00 0.00 0.00 21 999.7
20260507132122 51 281 4.0 6.0 0.00 0.00 0.00 22 999.7
20260507131619 51 283 4.0 4.0 0.00 0.00 0.00 22 999.7
20260507131117 51 283 3.0 6.0 0.00 0.00 0.00 21 999.7
20260507130613 51 265 3.0 4.0 0.00 0.00 0.00 22 999.7
20260507130111 51 274 4.0 6.0 0.00 0.00 0.00 23 1000.1
20260507125610 51 288 2.0 3.0 0.00 0.00 0.00 22 999.7
20260507125107 51 282 3.0 4.0 0.00 0.00 0.00 23 999.7
20260507124603 51 289 2.0 3.0 0.00 0.00 0.00 22 999.7
20260507124101 50 297 2.0 3.0 0.00 0.00 0.00 22 999.7
20260507123559 50 287 3.0 6.0 0.00 0.00 0.00 23 999.7
20260507123055 50 290 4.0 4.0 0.00 0.00 0.00 24 1000.1
20260507122551 50 286 3.0 4.0 0.00 0.00 0.00 26 999.7
20260507122047 50 283 3.0 4.0 0.00 0.00 0.00 27 999.7
20260507121543 50 292 2.0 4.0 0.00 0.00 0.00 26 999.7
20260507121039 50 280 5.0 7.0 0.00 0.00 0.00 27 999.7
20260507120535 50 296 3.0 4.0 0.00 0.00 0.00 27 999.7
20260507120032 49 280 3.0 4.0 0.00 0.00 0.00 30 999.7
20260507115528 49 275 2.0 6.0 0.00 0.00 0.00 29 999.7
20260507115024 49 284 4.0 6.0 0.00 0.00 0.00 28 999.7
20260507114520 48 291 4.0 6.0 0.00 0.00 0.00 31 999.7
20260507114018 48 283 4.0 4.0 0.00 0.00 0.00 32 999.7
20260507113515 48 289 3.0 3.0 0.00 0.00 0.00 32 999.7
20260507113012 47 285 2.0 4.0 0.00 0.00 0.00 33 999.7
20260507112510 47 297 2.0 2.0 0.00 0.00 0.00 34 999.7
20260507112006 46 288 0.0 1.0 0.00 0.00 0.00 33 999.7
20260507111504 46 288 1.0 2.0 0.00 0.00 0.00 34 999.4
20260507110959 46 291 0.0 2.0 0.00 0.00 0.00 34 999.7
20260507110456 46 290 0.0 0.0 0.00 0.00 0.00 34 999.4
20260507105952 46 273 1.0 2.0 0.00 0.00 0.00 34 999.7
20260507105449 46 291 0.0 0.0 0.00 0.00 0.00 35 999.7
20260507104946 46 286 1.0 2.0 0.00 0.00 0.00 36 1000.1
20260507104443 46 293 1.0 2.0 0.00 0.00 0.00 34 999.7
20260507103938 47 293 2.0 3.0 0.00 0.00 0.00 36 999.7
20260507103436 47 288 2.0 3.0 0.00 0.00 0.00 34 999.4
20260507102932 46 295 1.0 2.0 0.00 0.00 0.00 35 999.7
20260507102429 46 290 1.0 2.0 0.00 0.00 0.00 34 1000.1
20260507101925 47 288 1.0 3.0 0.00 0.00 0.00 36 999.7
20260507101420 47 294 2.0 2.0 0.00 0.00 0.00 37 999.7
20260507100917 47 289 2.0 3.0 0.00 0.00 0.00 37 999.7
20260507100415 47 292 3.0 3.0 0.00 0.00 0.00 37 999.7
20260507095913 47 284 2.0 4.0 0.00 0.00 0.00 36 999.7
20260507095409 47 296 2.0 3.0 0.00 0.00 0.00 37 999.4
20260507094907 47 287 2.0 3.0 0.00 0.00 0.00 37 1000.1
20260507094403 47 338 1.0 2.0 0.00 0.00 0.00 36 999.7
20260507093900 47 294 1.0 3.0 0.00 0.00 0.00 37 999.7
20260507093358 47 282 2.0 3.0 0.00 0.00 0.00 36 999.7
20260507092856 47 276 2.0 3.0 0.00 0.00 0.00 37 999.7
20260507092352 47 280 1.0 2.0 0.00 0.00 0.00 36 999.7
20260507091849 47 297 2.0 3.0 0.00 0.00 0.00 36 999.7
20260507091345 47 292 1.0 3.0 0.00 0.00 0.00 36 999.4
20260507090841 47 291 2.0 2.0 0.00 0.00 0.00 36 999.1
20260507090337 47 295 1.0 3.0 0.00 0.00 0.00 36 999.1
20260507085834 47 297 2.0 3.0 0.00 0.00 0.00 37 999.1
20260507085331 47 296 1.0 3.0 0.00 0.00 0.00 36 999.1
20260507084829 47 329 1.0 4.0 0.00 0.00 0.00 37 999.1
20260507084325 48 332 2.0 3.0 0.00 0.00 0.00 36 999.7
20260507083822 47 331 2.0 3.0 0.00 0.00 0.00 36 999.4
20260507083319 48 296 2.0 3.0 0.00 0.00 0.00 36 999.4
20260507082815 48 328 2.0 3.0 0.00 0.00 0.00 37 999.1
20260507082310 47 290 3.0 4.0 0.00 0.00 0.00 36 999.1
20260507081808 47 275 4.0 6.0 0.00 0.00 0.00 35 999.4
20260507081304 48 289 2.0 3.0 0.00 0.00 0.00 36 999.4
20260507080801 48 294 2.0 4.0 0.00 0.00 0.00 36 999.4
20260507080257 48 296 3.0 4.0 0.00 0.00 0.00 35 999.1
20260507075752 48 297 2.0 3.0 0.00 0.00 0.00 35 998.7
20260507075248 48 344 2.0 3.0 0.00 0.00 0.00 35 999.1
20260507074745 48 291 2.0 3.0 0.00 0.00 0.00 35 999.1
20260507074243 48 276 4.0 4.0 0.00 0.00 0.00 35 999.1
20260507073739 48 293 3.0 4.0 0.00 0.00 0.00 34 999.1
20260507073236 48 290 3.0 4.0 0.00 0.00 0.00 35 998.4
20260507072734 48 280 4.0 6.0 0.00 0.00 0.00 34 998.7
20260507072231 48 281 6.0 7.0 0.00 0.00 0.00 34 998.4
20260507071729 48 286 3.0 6.0 0.00 0.00 0.00 34 998.4
20260507071225 48 287 2.0 6.0 0.00 0.00 0.00 34 998.4
20260507070722 48 274 2.0 4.0 0.00 0.00 0.00 34 998.7
20260507070219 48 293 3.0 3.0 0.00 0.00 0.00 33 998.7
20260507065715 48 296 2.0 6.0 0.00 0.00 0.00 33 998.7
20260507065212 48 297 2.0 6.0 0.00 0.00 0.00 33 999.1
20260507064709 49 283 2.0 4.0 0.00 0.00 0.00 33 998.4
20260507064209 48 334 2.0 3.0 0.00 0.00 0.00 33 999.1
20260507063705 48 293 0.0 2.0 0.00 0.00 0.00 33 998.7
20260507063202 48 276 1.0 1.0 0.00 0.00 0.00 34 998.4
20260507062659 49 297 2.0 3.0 0.00 0.00 0.00 33 998.1
20260507062156 49 292 0.0 1.0 0.00 0.00 0.00 34 998.1
20260507061654 49 281 2.0 3.0 0.00 0.00 0.00 34 998.7
20260507061152 49 288 2.0 3.0 0.00 0.00 0.00 36 998.7
20260507060650 48 287 0.0 2.0 0.00 0.00 0.00 36 998.4
20260507060146 49 282 0.0 1.0 0.00 0.00 0.00 37 998.4
20260507055642 49 292 0.0 1.0 0.00 0.00 0.00 35 998.1
20260507055138 49 293 0.0 0.0 0.00 0.00 0.00 36 998.1
20260507054634 49 286 0.0 1.0 0.00 0.00 0.00 35 998.1
20260507054131 49 285 2.0 4.0 0.00 0.00 0.00 34 998.1
20260507053629 49 274 3.0 3.0 0.00 0.00 0.00 35 998.1
20260507053127 50 262 2.0 3.0 0.00 0.00 0.00 35 998.1
20260507052625 50 276 2.0 3.0 0.00 0.00 0.00 35 998.1
20260507052121 50 293 3.0 6.0 0.00 0.00 0.00 35 998.1
20260507051619 50 332 3.0 3.0 0.00 0.00 0.00 35 998.1
20260507051115 50 345 2.0 2.0 0.00 0.00 0.00 35 998.1
20260507050612 50 331 3.0 3.0 0.00 0.00 0.00 35 997.4
20260507050109 50 340 2.0 3.0 0.00 0.00 0.00 34 998.1
20260507045605 50 288 1.0 3.0 0.00 0.00 0.00 35 998.4
20260507045102 50 268 2.0 4.0 0.00 0.00 0.00 34 998.4
20260507044559 50 292 4.0 6.0 0.00 0.00 0.00 34 998.1
20260507044056 50 286 4.0 4.0 0.00 0.00 0.00 35 998.1
20260507043551 50 272 4.0 4.0 0.00 0.00 0.00 35 998.1
20260507043049 50 280 3.0 7.0 0.00 0.00 0.00 35 997.7
20260507042545 51 278 6.0 7.0 0.00 0.00 0.00 35 997.7
20260507042041 51 289 5.0 7.0 0.00 0.00 0.00 34 997.7
20260507041538 51 291 4.0 7.0 0.00 0.00 0.00 35 997.7
20260507041035 51 276 4.0 7.0 0.00 0.00 0.00 36 997.7
20260507040531 51 273 4.0 8.0 0.00 0.00 0.00 37 997.7
20260507040027 51 258 6.0 7.0 0.00 0.14 0.14 40 997.7
20260507035523 51 265 5.0 6.0 0.00 0.14 0.14 39 997.7
20260507035020 52 263 7.0 9.0 0.00 0.14 0.14 38 997.7
20260507034517 52 279 6.0 7.0 0.05 0.14 0.14 37 997.7
20260507034015 52 289 4.0 6.0 0.12 0.14 0.14 36 997.7
20260507033513 53 282 2.0 7.0 0.07 0.13 0.13 36 997.7
20260507033010 53 273 4.0 7.0 0.00 0.12 0.12 35 998.1
20260507032506 54 281 5.0 9.0 0.00 0.12 0.12 32 998.1
20260507032003 54 270 6.0 9.0 0.00 0.12 0.12 33 998.1
20260507031459 54 285 3.0 6.0 0.00 0.12 0.12 34 997.7
20260507030956 54 296 2.0 6.0 0.00 0.12 0.12 34 998.1
20260507030453 54 267 5.0 8.0 0.00 0.12 0.12 33 997.7
20260507025950 54 274 5.0 7.0 0.00 0.12 0.12 35 997.4
20260507025447 54 281 5.0 7.0 0.00 0.12 0.12 35 997.4
20260507024945 54 263 3.0 6.0 0.00 0.12 0.12 35 997.0
20260507024442 54 278 5.0 6.0 0.00 0.12 0.12 38 997.4
20260507023938 55 282 3.0 6.0 0.05 0.12 0.12 38 997.4
20260507023435 55 278 3.0 6.0 0.05 0.12 0.12 38 997.4
20260507022932 55 274 4.0 7.0 0.00 0.11 0.11 38 997.4
20260507022429 56 255 3.0 4.0 0.00 0.11 0.11 39 997.7
20260507021925 56 284 3.0 6.0 0.07 0.11 0.11 37 997.7
20260507021420 56 287 3.0 6.0 0.07 0.11 0.11 37 997.7
20260507020918 57 283 3.0 4.0 0.00 0.10 0.10 36 997.4
20260507020414 57 276 4.0 6.0 0.00 0.10 0.10 36 997.7
20260507015912 58 267 4.0 6.0 0.00 0.10 0.10 38 997.7
20260507015410 59 297 2.0 6.0 0.00 0.10 0.10 36 997.7
20260507014907 59 297 1.0 2.0 0.00 0.10 0.10 36 997.0
20260507014403 59 281 1.0 1.0 0.00 0.10 0.10 36 997.0
20260507013859 59 289 0.0 1.0 0.00 0.10 0.10 36 997.4
20260507013356 59 283 1.0 2.0 0.00 0.10 0.10 37 997.4
20260507012854 59 292 0.0 1.0 0.00 0.10 0.10 37 997.0
20260507012349 59 264 1.0 2.0 0.00 0.10 0.10 37 997.4
20260507011847 59 292 0.0 0.0 0.00 0.10 0.10 37 997.4
20260507011344 59 320 1.0 2.0 0.00 0.10 0.10 37 997.4
20260507010837 59 293 0.0 0.0 0.00 0.10 0.10 37 997.4
20260507010333 59 291 0.0 2.0 0.00 0.10 0.10 36 997.4
20260507005831 59 294 0.0 1.0 0.00 0.10 0.10 36 997.4
20260507005327 59 296 0.0 1.0 0.00 0.10 0.10 36 997.4
20260507004819 59 285 0.0 0.0 0.00 0.10 0.10 36 997.4
20260507004316 59 252 1.0 3.0 0.00 0.10 0.10 36 997.7
20260507003813 59 243 1.0 2.0 0.00 0.10 0.10 37 997.4
20260507003308 59 279 0.0 1.0 0.00 0.10 0.10 37 997.4
20260507002803 59 222 0.0 1.0 0.00 0.10 0.10 37 997.0
20260507002300 59 293 0.0 2.0 0.00 0.10 0.10 37 997.0
20260507001757 59 276 1.0 1.0 0.00 0.10 0.10 37 997.0
20260507001255 59 288 1.0 3.0 0.00 0.10 0.10 36 997.0
20260507000750 59 275 1.0 2.0 0.00 0.10 0.10 36 997.0
20260507000246 59 267 2.0 2.0 0.00 0.10 0.10 36 997.0
20260506235743 59 288 0.0 1.0 0.00 0.10 0.10 37 997.0
20260506235238 59 286 0.0 3.0 0.00 0.10 0.10 35 997.4
20260506234736 59 233 1.0 2.0 0.00 0.10 0.10 35 997.0
20260506234233 59 242 4.0 4.0 0.00 0.10 0.10 35 997.4
20260506233731 59 262 1.0 3.0 0.00 0.10 0.10 35 997.4
20260506233227 59 258 4.0 6.0 0.00 0.10 0.10 35 997.4
20260506232724 59 275 1.0 6.0 0.00 0.10 0.10 36 997.0
20260506232218 59 254 3.0 3.0 0.00 0.10 0.10 37 997.4
20260506231716 59 280 1.0 3.0 0.00 0.10 0.10 38 997.0
20260506231214 59 270 2.0 6.0 0.00 0.10 0.10 38 997.4
20260506230710 59 180 1.0 4.0 0.00 0.10 0.10 38 997.4
20260506230208 59 226 2.0 6.0 0.00 0.10 0.10 39 997.4
20260506225704 59 222 2.0 3.0 0.00 0.10 0.10 39 997.4
20260506225201 59 291 1.0 2.0 0.00 0.10 0.10 40 997.4
20260506224657 59 270 1.0 1.0 0.00 0.10 0.10 40 997.0
20260506224154 59 284 1.0 3.0 0.00 0.10 0.10 39 997.0
20260506223651 60 286 1.0 2.0 0.00 0.10 0.10 39 997.4
20260506223146 60 169 2.0 3.0 0.00 0.10 0.10 39 997.4
20260506222644 60 282 0.0 2.0 0.00 0.10 0.10 40 997.4
20260506222139 60 356 0.0 3.0 0.00 0.10 0.10 40 997.4
20260506221637 60 288 0.0 2.0 0.00 0.10 0.10 40 997.4
20260506221135 60 272 1.0 4.0 0.00 0.10 0.10 40 997.4
20260506220632 60 295 0.0 2.0 0.00 0.10 0.10 41 997.4
20260506220127 60 279 1.0 3.0 0.00 0.10 0.10 42 997.4
20260506215624 60 290 0.0 2.0 0.00 0.10 0.10 43 997.7
20260506215119 60 276 0.0 2.0 0.00 0.10 0.10 43 997.7
20260506214616 60 283 0.0 2.0 0.00 0.10 0.10 46 997.7
20260506214114 60 254 2.0 3.0 0.05 0.10 0.10 47 997.7
20260506213612 60 292 0.0 2.0 0.05 0.10 0.10 47 997.7
20260506213109 60 257 0.0 2.0 0.00 0.09 0.09 48 998.1
20260506212606 60 249 1.0 3.0 0.00 0.09 0.09 48 998.1
20260506212101 60 279 0.0 2.0 0.00 0.09 0.09 50 998.1
20260506211557 60 345 1.0 1.0 0.00 0.09 0.09 50 997.7
20260506211054 60 274 1.0 1.0 0.00 0.09 0.09 50 998.1
20260506210550 60 228 2.0 4.0 0.00 0.09 0.09 50 998.1
20260506210047 60 270 1.0 3.0 0.00 0.09 0.09 50 998.4
20260506205544 60 262 0.0 1.0 0.00 0.09 0.09 52 998.4
20260506205039 60 294 0.0 1.0 0.00 0.09 0.09 51 998.4
20260506204537 60 286 1.0 2.0 0.00 0.09 0.09 50 998.4
20260506204034 60 294 0.0 0.0 0.07 0.09 0.09 48 998.4
20260506203532 60 292 0.0 0.0 0.07 0.09 0.09 47 998.4
20260506203029 60 291 0.0 0.0 0.05 0.08 0.08 45 998.4